Location: Rounton
(54.4000°N, 1.3500°W)
Time: 01:05:39
(UTC+01:00)

Vanguard 3 - Pass Details

Date: 27 April 2024
Orbit: 509 x 3233 km, 33.3° (Epoch: 23 May)

Event Time Altitude Azimuth Distance (km) Brightness Sun altitude
Exits shadow 03:55:13 14° 218° (SW) 5,416 10.6 -12.5°
Maximum altitude 04:05:51 27° 175° (S) 3,797 10.2 -11.4°
Drops below altitude 10° 04:15:08 10° 123° (ESE) 4,144 10.9 -10.5°
Sets 04:18:30 0° 112° (ESE) 4,756 11.5 -10.1°
